Back to catalog

STARLINK-3299

AliveCommunicationsVLEO
NORAD 50831·PAYLOAD·🇺🇸 United States

Launched Jan 6, 2022 from Cape Canaveral Space Force Station

Loading…

Next Passes (next 24 hours)

TLE

FreshSource: CelesTrak SupGP

Epoch: Sep 15, 2026, 01:38 UTC

1 50831C 22001AE  26258.06854167  .00041845  00000+0  12657-2 0  2584
2 50831  53.1586  28.0778 0001180 349.4260  56.3595 15.33629257    14

Track STARLINK-3299 in real time with AllMySat

Download on the App Store